sat.trackr.live / text

‹ back to catalog

HULIANWANG DIGUI-44

NORAD 65047 · 2025-162E

PAYLOAD ACTIVE UNKNOWN

§ Identity

Operator
Country
PRC
Launch date
2025-07-30
Launch site
WSC
Launch vehicle
Mass (kg)
RCS (m²)

External: N2YO · Heavens-Above · Gunter

§ Orbital elements

Epoch: 2026-09-21T12:18:37.449216Z

Period
108.33 min
Inclination
50.0010°
Eccentricity
0.0001131
Mean motion
13.29322321 rev/d
Perigee alt
1,148.5 km
Apogee alt
1,150.2 km
Semi-major
7,527.5 km
B*
8.9023e-5
RAAN
280.2064°
Arg perigee
214.7175°
Mean anomaly
145.3624°
Rev number
5,618

§ Raw data

HULIANWANG DIGUI-441 65047U 25162E   26264.51293344 -.00000083  00000+0  89023-4 0  99962 65047  50.0010 280.2064 0001131 214.7175 145.3624 13.29322321 56188

JSON: /api/v1/satellites/65047 · /tle

For live sub-satellite position, see the globe view (requires WebGL).

§ Visibility from observer

Set your observer location to see the next 7 days of passes ≥ 10°. The values pass through the URL so the page stays shareable.

No JS? Fill the form by hand. The geolocation button needs JavaScript.